Location: Melizzano
(41.1500°N, 14.5000°E)
Time: 17:57:47
(UTC+00:00)

Cosmos 1500 - Pass Details

Date: 11 May 2021
Orbit: 497 x 518 km, 82.5° (Epoch: 21 June)

Event Time Altitude Azimuth Distance (km) Brightness Sun altitude
Rises 19:49:39 0° 356° (N) 2,608 7.5 -16.4°
Reaches altitude 10° 19:51:50 10° 2° (N) 1,716 6.4 -16.7°
Maximum altitude 19:55:31 54° 80° (E) 613 3.3 -17.2°
Enters shadow 19:56:24 42° 128° (SE) 724 3.4 -17.3°
